Weather History for Maun, Botswana

Change the Weather History Date:

Friday, February 7, 2014

  Actual Average Record
Temperature  
Mean Temperature 76 °F -  
Max Temperature 83 °F 88 °F 95 °F (1998)
Min Temperature 70 °F 68 °F 64 °F (2009)
Cooling Degree Days 12    
Growing Degree Days 26 (Base 50)    
Moisture  
Dew Point 69 °F    
Average Humidity 78    
Maximum Humidity 94    
Minimum Humidity 49    
Precipitation  
Precipitation 0.00 in - - ()
Sea Level Pressure  
Sea Level Pressure 29.80 in    
Wind  
Wind Speed 5 mph ()    
Max Wind Speed 13 mph    
Max Gust Speed -    
Visibility 6.2 miles    
Events      
Averages and records for this station are not official NWS values.
T = Trace of Precipitation, MM = Missing Value Source: Averaged Metar Reports

Daily Weather History Graph

Daily Weather History Graph

Search for Another Location

Airport:

Trip Planner

Search our weather history database for the weather conditions in past years. The results will help you decide how hot, cold, wet, or windy it might be!

Date:

Astronomy

Feb. 07, 2014 Rise Set
Actual Time 6:13 AM CAT 7:06 PM CAT
Civil Twilight 5:50 AM CAT 7:29 PM CAT
Nautical Twilight 5:23 AM CAT 7:57 PM CAT
Astronomical Twilight 4:55 AM CAT 8:24 PM CAT
Moon 1:20 PM CAT (2/7) 12:02 AM CAT (2/7)
Length of Visible Light 13h 39m
Length of Day
12h 52m
First Quarter, 56% of the Moon is Illuminated
Feb 7
First Quarter
Feb 15
Full
Feb 22
Last Quarter
Mar 1
New
Mar 8
First Quarter

Hourly Weather History & Observations

Time (CAT) Temp. Heat Index Dew Point Humidity Pressure Visibility Wind Dir Wind Speed Gust Speed Precip Events Conditions
12:00 AM 73.4 °F - 71.6 °F 94% 29.83 in 6.2 mi Variable 2.3 mph - N/A   Scattered Clouds
1:00 AM 73.4 °F - 71.6 °F 94% 29.83 in 6.2 mi North 3.5 mph - N/A   Scattered Clouds
2:00 AM 73 °F - 71 °F 91%  in 6 mi NNE 3.5 mph - -   Partly Cloudy
2:00 AM 73.4 °F - 71.6 °F 94% 29.80 in 6.2 mi NNE 3.5 mph - N/A   Scattered Clouds
3:00 AM 73.4 °F - 69.8 °F 88% 29.80 in 6.2 mi Variable 1.2 mph - N/A   Scattered Clouds
4:00 AM 71.6 °F - 69.8 °F 94% 29.77 in 6.2 mi East 4.6 mph - N/A   Scattered Clouds
5:00 AM 71 °F - 69 °F 90%  in 6 mi East 5.8 mph - -   Partly Cloudy
5:00 AM 69.8 °F - 68.0 °F 94% 29.77 in 6.2 mi East 5.8 mph - N/A   Scattered Clouds
6:00 AM 69.8 °F - 68.0 °F 94% 29.80 in 6.2 mi East 5.8 mph - N/A   Scattered Clouds
7:00 AM 69.8 °F - 68.0 °F 94% 29.83 in 6.2 mi East 6.9 mph - N/A   Partly Cloudy
8:00 AM 71 °F - 69 °F 89%  in 6 mi NE 4.6 mph - -   Partly Cloudy
9:00 AM 73.4 °F - 69.8 °F 88% 29.83 in 6.2 mi NE 5.8 mph - N/A   Scattered Clouds
10:00 AM 78.8 °F - 69.8 °F 74% 29.83 in 6.2 mi NE 4.6 mph - N/A   Scattered Clouds
11:00 AM 81 °F - 69 °F 59%  in 6 mi NE 9.2 mph - -   Partly Cloudy
11:00 AM 80.6 °F 83.9 °F 69.8 °F 70% 29.83 in 6.2 mi NE 9.2 mph - N/A   Mostly Cloudy
12:00 PM 82.4 °F 86.3 °F 69.8 °F 66% 29.80 in 6.2 mi NE 9.2 mph - N/A   Mostly Cloudy
1:00 PM 82.4 °F 85.4 °F 68.0 °F 62% 29.80 in 6.2 mi NE 9.2 mph - N/A   Mostly Cloudy
2:00 PM 83 °F - 67 °F 49%  in 6 mi NE 12.7 mph - -   Partly Cloudy
2:00 PM 82.4 °F 84.6 °F 66.2 °F 58% 29.77 in 6.2 mi NE 12.7 mph - N/A   Mostly Cloudy
3:00 PM 82.4 °F 85.4 °F 68.0 °F 62% 29.77 in 6.2 mi NNE 11.5 mph - N/A   Mostly Cloudy
4:00 PM 82.4 °F 85.4 °F 68.0 °F 62% 29.74 in 6.2 mi NE 9.2 mph - N/A   Scattered Clouds
5:00 PM 83 °F - 68 °F 52%  in 6 mi North 5.8 mph - -   Partly Cloudy
5:00 PM 82.4 °F 85.4 °F 68.0 °F 62% 29.74 in 6.2 mi North 6.9 mph - N/A   Mostly Cloudy
6:00 PM 80.6 °F 83.2 °F 68.0 °F 65% 29.77 in 6.2 mi NNW 4.6 mph - N/A   Partly Cloudy
7:00 PM 80.6 °F 83.9 °F 69.8 °F 70% 29.77 in 6.2 mi North 4.6 mph - N/A   Partly Cloudy
10:00 PM 73.4 °F - 69.8 °F 88% 29.83 in 6.2 mi NE 4.6 mph - N/A   Scattered Clouds
11:00 PM 74 °F - 70 °F 85%  in 6 mi NNE 6.9 mph - -   Partly Cloudy
11:00 PM 73.4 °F - 69.8 °F 88% 29.80 in 6.2 mi NNE 6.9 mph - N/A   Scattered Clouds